�������l�o���
Date,Time,MP-1(��Sv/h),MP-2(��Sv/h),MP-3(��Sv/h),MP-4(��Sv/h),MP-5(��Sv/h),MP-6(��Sv/h),MP-7(��Sv/h),MP-8(��Sv/h),����,����(m/s),���J
2019/09/04,00:00,0.727,1.015,0.707,1.264,0.925,0.415,0.724,0.689,-,CALM,��
2019/09/04,00:10,0.727,1.015,0.708,1.264,0.925,0.417,0.726,0.689,-,CALM,��
2019/09/04,00:20,0.727,1.019,0.709,1.260,0.927,0.416,0.726,0.689,-,CALM,��
2019/09/04,00:30,0.727,1.015,0.708,1.262,0.924,0.417,0.726,0.689,-,CALM,��
2019/09/04,00:40,0.729,1.017,0.709,1.263,0.926,0.416,0.727,0.687,-,CALM,��
2019/09/04,00:50,0.729,1.015,0.707,1.265,0.925,0.417,0.727,0.689,-,CALM,��
2019/09/04,01:00,0.727,1.017,0.707,1.265,0.923,0.417,0.725,0.688,��,0.9,��
2019/09/04,01:10,0.726,1.019,0.708,1.267,0.924,0.417,0.726,0.688,��쐼,1.7,��
2019/09/04,01:20,0.729,1.017,0.708,1.263,0.926,0.415,0.725,0.689,�쐼,1.9,��
2019/09/04,01:30,0.730,1.020,0.708,1.264,0.927,0.417,0.725,0.688,��,1.2,��
2019/09/04,01:40,0.728,1.018,0.708,1.265,0.926,0.417,0.725,0.688,���쐼,1.5,��
2019/09/04,01:50,0.727,1.018,0.708,1.264,0.925,0.416,0.725,0.688,���쐼,1.5,��
2019/09/04,02:00,0.729,1.018,0.707,1.265,0.924,0.417,0.726,0.688,���쐼,1.4,��
2019/09/04,02:10,0.727,1.018,0.709,1.262,0.925,0.419,0.726,0.689,�k��,1.2,�L
2019/09/04,02:20,0.726,1.017,0.708,1.267,0.926,0.416,0.725,0.689,��,0.8,��
2019/09/04,02:30,0.729,1.018,0.709,1.266,0.926,0.418,0.726,0.689,�쐼,1.2,�L
2019/09/04,02:40,0.727,1.019,0.707,1.267,0.927,0.417,0.726,0.689,�쐼,2.2,��
2019/09/04,02:50,0.729,1.017,0.708,1.266,0.926,0.418,0.724,0.689,�쐼,2.3,�L
2019/09/04,03:00,0.730,1.016,0.708,1.266,0.925,0.417,0.723,0.687,��쐼,4.1,�L
2019/09/04,03:10,0.728,1.016,0.708,1.268,0.925,0.417,0.725,0.686,��쐼,3.6,�L
2019/09/04,03:20,0.730,1.019,0.710,1.266,0.924,0.418,0.723,0.685,��쐼,3.2,�L
2019/09/04,03:30,0.726,1.014,0.709,1.265,0.922,0.417,0.721,0.683,��쐼,3.2,�L
2019/09/04,03:40,0.727,1.014,0.708,1.263,0.920,0.418,0.719,0.683,��쐼,2.2,�L
2019/09/04,03:50,0.725,1.013,0.707,1.258,0.921,0.419,0.722,0.683,���쓌,1.2,�L
2019/09/04,04:00,0.725,1.009,0.706,1.259,0.921,0.417,0.722,0.682,���k��,0.6,��
2019/09/04,04:10,0.722,1.005,0.707,1.261,0.920,0.417,0.725,0.683,��,1.1,�L
2019/09/04,04:20,0.722,1.003,0.706,1.261,0.921,0.415,0.722,0.683,��,1.7,�L
2019/09/04,04:30,0.722,1.005,0.706,1.258,0.919,0.416,0.721,0.683,�쐼,1.7,�L
2019/09/04,04:40,0.722,1.005,0.706,1.257,0.918,0.416,0.722,0.683,��쐼,1.2,�L
2019/09/04,04:50,0.724,1.005,0.706,1.258,0.918,0.417,0.721,0.684,���쐼,1.2,�L
2019/09/04,05:00,0.722,1.004,0.705,1.256,0.919,0.417,0.721,0.683,���k��,0.9,��
2019/09/04,05:10,0.723,1.007,0.706,1.258,0.919,0.417,0.721,0.684,���k��,0.9,��
2019/09/04,05:20,0.724,1.007,0.703,1.257,0.920,0.416,0.721,0.682,�k��,1.4,��
2019/09/04,05:30,0.723,1.007,0.704,1.256,0.918,0.415,0.721,0.679,�k��,1.7,��
2019/09/04,05:40,0.724,1.006,0.704,1.254,0.919,0.416,0.721,0.683,�k��,1.2,��
2019/09/04,05:50,0.722,1.007,0.702,1.258,0.918,0.414,0.720,0.682,�k��,1.2,��
2019/09/04,06:00,0.724,1.008,0.703,1.256,0.916,0.414,0.719,0.684,�k��,1.5,��
2019/09/04,06:10,0.723,1.008,0.702,1.255,0.918,0.414,0.720,0.683,�k�k��,2.0,�L
2019/09/04,06:20,0.724,1.008,0.704,1.254,0.919,0.415,0.721,0.681,�k��,1.7,��
2019/09/04,06:30,0.722,1.007,0.705,1.256,0.919,0.414,0.720,0.683,�k��,2.0,��
2019/09/04,06:40,0.722,1.007,0.703,1.259,0.917,0.414,0.720,0.683,�k��,2.8,��
2019/09/04,06:50,0.725,1.011,0.703,1.255,0.919,0.415,0.721,0.682,���k��,3.2,��
2019/09/04,07:00,0.721,1.008,0.703,1.257,0.918,0.416,0.722,0.683,���k��,3.1,�L
2019/09/04,07:10,0.724,1.007,0.704,1.257,0.919,0.415,0.720,0.684,�k��,3.0,�L
2019/09/04,07:20,0.725,1.007,0.703,1.258,0.919,0.414,0.723,0.683,�k��,3.4,�L
2019/09/04,07:30,0.723,1.007,0.702,1.258,0.918,0.414,0.720,0.684,�k��,3.1,�L
2019/09/04,07:40,0.724,1.008,0.704,1.257,0.920,0.414,0.723,0.683,�k�k��,4.8,�L
2019/09/04,07:50,0.723,1.009,0.704,1.257,0.919,0.415,0.723,0.684,�k�k��,4.1,��
2019/09/04,08:00,0.725,1.008,0.706,1.259,0.920,0.415,0.724,0.684,�k,3.2,��
2019/09/04,08:10,0.724,1.010,0.705,1.261,0.923,0.414,0.722,0.683,�k,3.4,��
2019/09/04,08:20,0.724,1.009,0.703,1.258,0.918,0.413,0.723,0.685,�k,3.1,��
2019/09/04,08:30,0.724,1.008,0.703,1.259,0.919,0.414,0.724,0.685,�k,3.5,��
2019/09/04,08:40,0.726,1.004,0.703,1.259,0.922,0.414,0.723,0.686,�k,3.1,��
2019/09/04,08:50,0.724,1.008,0.706,1.262,0.918,0.413,0.724,0.685,�k,3.5,��
2019/09/04,09:00,0.723,1.005,0.701,1.259,0.919,0.414,0.724,0.686,�k,3.3,��
2019/09/04,09:10,0.724,1.006,0.704,1.262,0.921,0.412,0.724,0.684,�k,3.5,��
2019/09/04,09:20,0.725,1.006,0.701,1.257,0.921,0.414,0.724,0.684,�k�k��,3.7,��
2019/09/04,09:30,0.724,1.005,0.701,1.263,0.923,0.415,0.725,0.685,�k�k��,3.8,��
2019/09/04,09:40,0.725,1.008,0.700,1.262,0.923,0.414,0.726,0.685,�k�k��,3.3,��
2019/09/04,09:50,0.726,1.000,0.700,1.260,0.921,0.414,0.724,0.686,�k�k��,2.5,��
2019/09/04,10:00,0.727,1.010,0.700,1.260,0.923,0.413,0.727,0.684,�k,2.8,��
2019/09/04,10:10,0.725,1.007,0.702,1.262,0.922,0.413,0.727,0.685,�k�k��,3.5,�L
2019/09/04,10:20,0.727,1.009,0.701,1.264,0.925,0.415,0.728,0.685,�k�k��,3.7,�L
2019/09/04,10:30,0.729,1.007,0.705,1.261,0.923,0.415,0.727,0.687,�k,3.6,�L
2019/09/04,10:40,0.727,1.009,0.701,1.260,0.926,0.415,0.727,0.687,�k,4.1,��
2019/09/04,10:50,0.727,1.008,0.706,1.263,0.923,0.414,0.726,0.686,�k,5.0,��
2019/09/04,11:00,0.728,1.011,0.706,1.262,0.925,0.414,0.727,0.687,�k�k��,3.9,��
2019/09/04,11:10,0.727,1.014,0.706,1.264,0.925,0.415,0.726,0.687,�k,5.1,��
2019/09/04,11:20,0.728,1.011,0.707,1.264,0.926,0.414,0.729,0.687,�k,4.7,��
2019/09/04,11:30,0.730,1.011,0.706,1.264,0.927,0.415,0.727,0.687,�k�k��,4.9,�L
2019/09/04,11:40,0.729,1.012,0.704,1.263,0.929,0.415,0.727,0.686,�k,3.1,��
2019/09/04,11:50,0.730,1.015,0.707,1.263,0.926,0.415,0.729,0.686,�k,4.3,��
2019/09/04,12:00,0.729,1.018,0.706,1.264,0.926,0.415,0.728,0.685,�k�k��,4.7,��
2019/09/04,12:10,0.730,1.016,0.709,1.264,0.926,0.417,0.727,0.688,�k�k��,4.1,��
2019/09/04,12:20,0.730,1.020,0.709,1.265,0.925,0.415,0.726,0.687,�k,3.9,��
2019/09/04,12:30,0.728,1.016,0.708,1.264,0.929,0.414,0.726,0.686,�k,4.1,��
2019/09/04,12:40,0.731,1.017,0.707,1.266,0.928,0.416,0.727,0.687,�k�k��,3.6,��
2019/09/04,12:50,0.731,1.018,0.709,1.266,0.926,0.416,0.728,0.689,�k,4.4,��
2019/09/04,13:00,0.730,1.018,0.706,1.266,0.929,0.415,0.728,0.687,�k,4.6,��
2019/09/04,13:10,0.730,1.017,0.709,1.262,0.930,0.415,0.729,0.687,�k��,4.3,��
2019/09/04,13:20,0.730,1.018,0.708,1.264,0.930,0.414,0.729,0.687,�k,5.6,��
2019/09/04,13:30,0.730,1.017,0.709,1.269,0.931,0.415,0.728,0.686,�k�k��,4.5,��
2019/09/04,13:40,0.730,1.016,0.707,1.267,0.930,0.414,0.729,0.688,�k�k��,3.9,��
2019/09/04,13:50,0.732,1.017,0.707,1.266,0.931,0.417,0.728,0.687,�k�k��,4.4,��
2019/09/04,14:00,0.730,1.017,0.710,1.269,0.929,0.416,0.726,0.689,�k�k��,4.7,��
2019/09/04,14:10,0.731,1.015,0.709,1.268,0.931,0.415,0.728,0.688,�k�k��,4.2,��
2019/09/04,14:20,0.732,1.019,0.710,1.269,0.931,0.415,0.728,0.688,�k�k��,4.5,��
2019/09/04,14:30,0.731,1.016,0.709,1.267,0.931,0.416,0.729,0.687,�k�k��,4.7,��
2019/09/04,14:40,0.731,1.020,0.710,1.269,0.933,0.416,0.728,0.690,�k�k��,4.3,��
2019/09/04,14:50,0.732,1.017,0.708,1.269,0.933,0.416,0.731,0.689,�k�k��,3.9,��
2019/09/04,15:00,0.732,1.018,0.709,1.268,0.930,0.415,0.729,0.688,�k�k��,4.4,��
2019/09/04,15:10,0.730,1.022,0.708,1.269,0.932,0.415,0.728,0.689,�k�k��,4.3,��
2019/09/04,15:20,0.730,1.023,0.709,1.268,0.933,0.415,0.728,0.688,�k,4.2,��
2019/09/04,15:30,0.732,1.027,0.710,1.271,0.932,0.417,0.729,0.690,�k�k��,4.6,��
2019/09/04,15:40,0.729,1.023,0.706,1.268,0.935,0.416,0.729,0.689,�k�k��,4.5,��
2019/09/04,15:50,0.733,1.021,0.707,1.269,0.934,0.416,0.729,0.690,�k�k��,4.4,��
2019/09/04,16:00,0.732,1.023,0.709,1.271,0.935,0.416,0.727,0.687,�k�k��,4.3,��
2019/09/04,16:10,0.731,1.025,0.711,1.272,0.936,0.415,0.728,0.689,�k�k��,4.1,��
2019/09/04,16:20,0.732,1.025,0.712,1.271,0.933,0.418,0.729,0.688,�k�k��,3.5,��
2019/09/04,16:30,0.732,1.025,0.712,1.270,0.935,0.415,0.728,0.689,�k�k��,3.1,��
2019/09/04,16:40,0.731,1.028,0.711,1.274,0.935,0.417,0.728,0.689,�k�k��,3.4,��
2019/09/04,16:50,0.732,1.025,0.714,1.271,0.932,0.417,0.730,0.689,�k�k��,2.9,��
2019/09/04,17:00,0.731,1.026,0.712,1.272,0.935,0.417,0.730,0.689,�k�k��,2.8,��
2019/09/04,17:10,0.731,1.026,0.714,1.273,0.935,0.419,0.730,0.690,�k�k��,2.8,��
2019/09/04,17:20,0.730,1.028,0.713,1.272,0.934,0.417,0.727,0.689,�k�k��,3.0,��
2019/09/04,17:30,0.730,1.030,0.713,1.272,0.935,0.418,0.729,0.689,�k,3.0,��
2019/09/04,17:40,0.732,1.030,0.714,1.272,0.936,0.418,0.729,0.690,�k,2.9,��
2019/09/04,17:50,0.732,1.029,0.714,1.275,0.937,0.418,0.729,0.690,�k�k��,3.4,��
2019/09/04,18:00,0.732,1.027,0.714,1.275,0.936,0.416,0.729,0.692,�k�k��,3.2,��
2019/09/04,18:10,0.733,1.029,0.714,1.274,0.937,0.417,0.730,0.691,�k�k��,2.6,��
2019/09/04,18:20,0.732,1.029,0.714,1.274,0.936,0.417,0.729,0.693,�k,2.3,��
2019/09/04,18:30,0.733,1.028,0.714,1.275,0.938,0.416,0.730,0.692,�k,1.7,��
2019/09/04,18:40,0.734,1.028,0.716,1.276,0.934,0.417,0.730,0.692,�k,2.2,��
2019/09/04,18:50,0.733,1.026,0.713,1.275,0.936,0.417,0.731,0.692,�k,2.0,��
2019/09/04,19:00,0.733,1.031,0.714,1.277,0.937,0.418,0.731,0.691,�k,2.0,��
2019/09/04,19:10,0.735,1.025,0.715,1.275,0.937,0.419,0.728,0.691,�k�k��,2.0,��
2019/09/04,19:20,0.735,1.028,0.712,1.277,0.938,0.417,0.732,0.691,�k,2.3,��
2019/09/04,19:30,0.734,1.029,0.714,1.275,0.937,0.417,0.729,0.692,�k,2.3,��
2019/09/04,19:40,0.734,1.028,0.714,1.276,0.934,0.419,0.731,0.691,�k�k��,2.0,��
2019/09/04,19:50,0.736,1.024,0.715,1.275,0.938,0.418,0.730,0.691,�k�k��,1.7,��
2019/09/04,20:00,0.736,1.028,0.715,1.276,0.937,0.418,0.730,0.690,�k�k��,1.7,��
2019/09/04,20:10,0.734,1.029,0.714,1.275,0.938,0.417,0.731,0.690,�k��,2.2,��
2019/09/04,20:20,0.733,1.029,0.715,1.276,0.934,0.418,0.729,0.693,�k�k��,2.0,��
2019/09/04,20:30,0.733,1.028,0.715,1.278,0.937,0.417,0.729,0.690,�k�k��,2.2,��
2019/09/04,20:40,0.735,1.031,0.714,1.275,0.935,0.419,0.729,0.692,�k�k��,2.2,��
2019/09/04,20:50,0.733,1.029,0.714,1.276,0.935,0.418,0.729,0.692,�k��,2.0,��
2019/09/04,21:00,0.735,1.030,0.715,1.276,0.937,0.418,0.729,0.691,�k��,2.3,��
2019/09/04,21:10,0.735,1.031,0.715,1.274,0.938,0.418,0.730,0.690,�k��,2.0,��
2019/09/04,21:20,0.732,1.029,0.714,1.275,0.935,0.416,0.730,0.692,�k��,2.3,��
2019/09/04,21:30,0.734,1.027,0.712,1.275,0.937,0.419,0.731,0.694,�k��,1.5,��
2019/09/04,21:40,0.734,1.028,0.714,1.277,0.937,0.419,0.730,0.691,�k��,1.7,��
2019/09/04,21:50,0.733,1.028,0.716,1.279,0.936,0.419,0.730,0.691,�k�k��,2.6,��
2019/09/04,22:00,0.732,1.029,0.713,1.277,0.937,0.418,0.731,0.693,�k�k��,2.3,��
2019/09/04,22:10,0.734,1.029,0.716,1.276,0.936,0.418,0.731,0.692,�k�k��,2.3,��
2019/09/04,22:20,0.734,1.030,0.715,1.277,0.936,0.419,0.729,0.691,�k�k��,2.8,��
2019/09/04,22:30,0.734,1.031,0.716,1.277,0.937,0.419,0.731,0.692,�k�k��,2.8,��
2019/09/04,22:40,0.734,1.030,0.716,1.276,0.940,0.418,0.730,0.692,�k�k��,2.5,��
2019/09/04,22:50,0.734,1.030,0.714,1.275,0.936,0.418,0.729,0.693,�k�k��,2.6,��
2019/09/04,23:00,0.736,1.030,0.714,1.277,0.936,0.416,0.731,0.692,�k�k��,3.0,��
2019/09/04,23:10,0.735,1.029,0.715,1.278,0.938,0.417,0.730,0.691,�k�k��,2.6,��
2019/09/04,23:20,0.732,1.032,0.715,1.277,0.938,0.418,0.731,0.692,�k�k��,2.3,��
2019/09/04,23:30,0.734,1.029,0.715,1.277,0.934,0.418,0.730,0.690,�k�k��,2.6,��
2019/09/04,23:40,0.734,1.028,0.715,1.277,0.936,0.419,0.730,0.691,�k�k��,2.5,��
2019/09/04,23:50,0.733,1.028,0.716,1.276,0.936,0.419,0.730,0.693,�k�k��,2.3,��
